Weather History for KCKV - April, 2012

Change the Weather History Date:

Wednesday, April 25, 2012

  Actual Average Record
Temperature  
Mean Temperature 67 °F -  
Max Temperature 80 °F - 89 °F (1965)
Min Temperature 54 °F - 32 °F (1974)
Degree Days  
Heating Degree Days 0    
Month to date heating degree days 200  
Since 1 July heating degree days 3097  
Cooling Degree Days 2    
Month to date cooling degree days 35  
Growing Degree Days 16 (Base 50)    
Moisture  
Dew Point 55 °F    
Average Humidity 61    
Maximum Humidity 67    
Minimum Humidity 54    
Precipitation  
Precipitation 0.00 in - 1.08 in (1958)
Month to date precipitation 1.62  
Sea Level Pressure  
Sea Level Pressure 29.73 in    
Wind  
Wind Speed 10 mph (SSW)    
Max Wind Speed 23 mph    
Max Gust Speed 29 mph    
Visibility 10 miles    
Events      
T = Trace of Precipitation, MM = Missing Value Source: NWS Daily Summary

Daily Weather History Graph

Daily Weather History Graph

Search for Another Location

Airport or City:

Trip Planner

Search our weather history database for the weather conditions in past years. The results will help you decide how hot, cold, wet, or windy it might be!

Date:

Astronomy

Apr. 25, 2012 Rise Set
Actual Time 6:02 AM CDT 7:33 PM CDT
Civil Twilight 5:35 AM CDT 8:00 PM CDT
Nautical Twilight 5:02 AM CDT 8:33 PM CDT
Astronomical Twilight 4:27 AM CDT 9:08 PM CDT
Moon 8:51 AM CDT (4/25) 11:35 PM CDT (4/25)
Length of Visible Light 14h 25m
Length of Day
13h 30m
Waxing Crescent, 17% of the Moon is Illuminated
Apr 25
Waxing Crescent
Apr 29
First Quarter
May 5
Full
May 12
Last Quarter
May 20
New

Hourly Weather History & Observations

Time (CDT) Temp. Dew Point Humidity Pressure Visibility Wind Dir Wind Speed Gust Speed Precip Events Conditions
12:52 AM 55.9 °F 44.1 °F 64% 29.76 in 10.0 mi South 4.6 mph - N/A   Clear
2:52 AM 57.9 °F 45.0 °F 62% 29.73 in 10.0 mi SW 6.9 mph - N/A   Clear
3:52 AM 60.1 °F 46.0 °F 60% 29.73 in 10.0 mi SW 8.1 mph - N/A   Clear
4:52 AM 60.1 °F 46.0 °F 60% 29.73 in 10.0 mi SW 8.1 mph - N/A   Clear
5:52 AM 59.0 °F 46.9 °F 64% 29.75 in 10.0 mi WSW 6.9 mph - N/A   Clear
6:52 AM 60.1 °F 48.0 °F 64% 29.77 in 10.0 mi SW 9.2 mph - N/A   Clear
7:52 AM 63.0 °F 51.1 °F 65% 29.79 in 10.0 mi WSW 6.9 mph 16.1 mph N/A   Clear
8:52 AM 66.9 °F 53.1 °F 61% 29.78 in 10.0 mi SW 9.2 mph - N/A   Clear
9:52 AM 70.0 °F 55.0 °F 59% 29.77 in 10.0 mi SSW 8.1 mph - N/A   Clear
10:52 AM 72.0 °F 55.9 °F 57% 29.76 in 10.0 mi South 8.1 mph - N/A   Clear
11:52 AM 73.9 °F 57.9 °F 57% 29.76 in 10.0 mi South 9.2 mph - N/A   Clear
12:52 PM 75.9 °F 59.0 °F 56% 29.75 in 10.0 mi South 10.4 mph - N/A   Clear
1:52 PM 77.0 °F 60.1 °F 56% 29.75 in 10.0 mi SSW 8.1 mph - N/A   Clear
2:52 PM 78.1 °F 61.0 °F 56% 29.76 in 10.0 mi SW 12.7 mph 18.4 mph N/A   Clear
3:52 PM 77.0 °F 61.0 °F 58% 29.71 in 10.0 mi SW 15.0 mph 19.6 mph N/A   Clear
4:52 PM 75.9 °F 62.1 °F 62% 29.65 in 10.0 mi SSE 6.9 mph - N/A   Partly Cloudy
5:52 PM 78.1 °F 62.1 °F 58% 29.68 in 10.0 mi SW 15.0 mph 23.0 mph N/A   Clear
6:52 PM 77.0 °F 60.1 °F 56% 29.65 in 10.0 mi SSW 17.3 mph 27.6 mph N/A   Clear
7:52 PM 75.0 °F 61.0 °F 62% 29.66 in 10.0 mi SSW 15.0 mph 24.2 mph N/A   Clear
8:52 PM 73.9 °F 60.1 °F 62% 29.71 in 10.0 mi SW 8.1 mph - N/A   Clear
9:52 PM 73.9 °F 59.0 °F 59% 29.72 in 10.0 mi SW 10.4 mph - N/A   Partly Cloudy
10:52 PM 73.9 °F 57.9 °F 57% 29.72 in 10.0 mi SW 12.7 mph 19.6 mph N/A   Mostly Cloudy
11:52 PM 73.0 °F 57.9 °F 59% 29.72 in 10.0 mi SW 13.8 mph 20.7 mph N/A   Scattered Clouds